map of LAD home
Great Circle Mapper logo
LAD - Airport
Location
City:  Luanda, Angola
Name:Aeroporto 4 de Fevereiro
ICAO / IATA:FNLU / LAD

Details
Type:Airport (Aerodrome, Airfield)
Use:Public/Civil, Military, International (customs port of entry)
Latitude:851'30"S (-8.858374)
Longitude:1313'52"E (13.231178)
Datum:other
Elevation:243 ft (74 m)
Runways:2
Longest:12190 × 148 ft (3716 × 45 m), paved

Time
Time Zone:UTC+1
Local Time:

Weather
METAR:FNLU 242100Z 18006KT 9999 FEW015 SCT020 27/25 Q1011 NOSIG
TAF:FNLU 241100Z 2412/2518 28010KT 9999 FEW025 SCT050 PROB30
TEMPO 2414/2422 5000 TSRA SCT018 FEW020CB SCT030
BECMG 2418/2420 19005KT
BECMG 2500/2502 VRB03KT PROB30
TEMPO 2504/2510 7000 -RADZ SCT020 BKN030
BECMG 2510/2512 28010KT

Related Locations
Nearby:
Farthest:PLPA: 12062 mi / 19412 km
Palmyra Island Atoll [Palmyra Airport (Cooper)], UM

Find:

   beyond  
but within

Other Information
Maps:
NOTAMs:
Links:
Sources:

  
flag of Angola   

Sectional Chart

Flight Planning
at skyvector.com

Satellite Image

Google Maps Satellite View

 

Copyright © 2004-2014 Karl L. Swartz. All rights reserved.
The Great Circle Mapper name and logo are trademarks of the Great Circle Mapper.
All other trademarks mentioned herein belong to their respective owners.
Please see credits for attibutions and further copyright information.

  Follow gcmap on Facebook Follow gcmap on Twitter

hCard Microformat

Geo Microformat